Flag for France Weather past 2 weeks in Limoges, France

Now
84 °F

Sunny.


Feels Like: 86 °F
Forecast: 71 / 89 °F
Wind: 6 mph from South

Location: Limoges Airport

Current Time: Aug 29, 2015 at 7:52:40 PM

Latest Report: Aug 29, 2015 at 7:30 PM


Visibility: 10 mi

Pressure: 30.04 "Hg

Humidity: 51%

Dew point: 64 °F

Location of LimogesLocation

Historic Weather in Limoges — Graph

°F

Limoges temperature yesterday

Maximum temperature yesterday: 81 °F (at 5:30 PM)
Minimum temperature yesterday: 68 °F (at 1:00 AM)
Average temperature yesterday: 73 °F

Past Weeks' High & Low Weather Summary

 TemperatureHumidityPressure
High88 °F (Aug 29, 5:00 PM)100% (Aug 14, 7:00 PM)30.24 "Hg (Aug 14, 7:00 PM)
Low48 °F (Aug 16, 7:00 AM)37% (Aug 21, 3:00 PM)29.59 "Hg (Aug 24, 4:30 AM)
Average66 °F71%30.01 "Hg
* Reported Aug 14 7:00 PM — Aug 29 7:00 PM, Limoges, Weather by CustomWeather, © 2015

Note: Actual official high and low records may vary slightly from our data, if they occured in-between our weather recording intervals... More about our weather records

Advertising

Limoges weather history for previous 24 hours

 ConditionsComfort  
Time TempWeatherWind HumidityBarometerVisibility
7:00 PM
Sat, Aug 29
86 °FSunny.6 mph52%30.04 "Hg10 mi
6:30 PM84 °FSunny.7 mph51%30.04 "Hg10 mi
6:00 PM86 °FSunny.10 mph52%30.04 "Hg10 mi
5:30 PM86 °FPassing clouds.10 mph52%30.04 "HgN/A
5:00 PM88 °FSunny.12 mph49%30.07 "Hg10 mi
4:30 PM86 °FPassing clouds.9 mph52%30.07 "HgN/A
4:00 PM86 °FPassing clouds.9 mph49%30.07 "HgN/A
3:30 PM86 °FPassing clouds.12 mph49%30.07 "HgN/A
3:00 PM84 °FPassing clouds.10 mph55%30.09 "HgN/A
2:30 PM84 °FPassing clouds.12 mph55%30.09 "HgN/A
2:00 PM84 °FPassing clouds.10 mph51%30.09 "HgN/A
1:30 PM82 °FPassing clouds.12 mph58%30.09 "HgN/A
1:00 PM82 °FPassing clouds.10 mph55%30.09 "HgN/A
12:00 PM79 °FSunny.12 mph65%30.09 "Hg10 mi
11:30 AM79 °FPassing clouds.12 mph65%30.09 "HgN/A
11:00 AM77 °FSunny.10 mph65%30.12 "Hg10 mi
10:00 AM73 °FSunny.9 mph74%30.12 "Hg10 mi
9:30 AM72 °FSunny.8 mph78%30.12 "Hg10 mi
9:00 AM70 °FSunny.8 mph83%30.12 "Hg10 mi
8:00 AM66 °FPassing clouds.5 mph100%30.12 "HgN/A
7:30 AM66 °FClear.5 mph94%30.09 "Hg10 mi
7:00 AM66 °FClear.2 mph94%30.09 "Hg10 mi
6:00 AM66 °FClear.5 mph94%30.09 "Hg10 mi
5:00 AM66 °FClear.3 mph94%30.09 "Hg10 mi
4:30 AM66 °FClear.5 mph94%30.09 "Hg10 mi
4:00 AM66 °FClear.6 mph94%30.09 "Hg10 mi
3:30 AM68 °FClear.5 mph88%30.09 "Hg10 mi
3:00 AM68 °FClear.6 mph88%30.09 "Hg10 mi
2:30 AM68 °FClear.6 mph88%30.09 "Hg10 mi
2:00 AM68 °FClear.7 mph88%30.09 "Hg10 mi
1:30 AM68 °FClear.5 mph94%30.12 "Hg10 mi
1:00 AM70 °FClear.6 mph88%30.12 "Hg10 mi
12:00 AM72 °FClear.3 mph78%30.12 "Hg10 mi
11:00 PM
Fri, Aug 28
73 °FClear.No wind74%30.12 "Hg10 mi
10:30 PM73 °FClear.1 mph74%30.12 "Hg10 mi
10:00 PM73 °FClear.No wind74%30.09 "Hg10 mi
9:30 PM73 °FSunny.No wind74%30.09 "Hg10 mi
9:00 PM75 °FSunny.2 mph74%30.09 "Hg10 mi
8:30 PM77 °FSunny.No wind69%30.09 "Hg10 mi
8:00 PM79 °FSunny.2 mph65%30.09 "Hg10 mi
7:30 PM79 °FPassing clouds.3 mph65%30.09 "HgN/A
7:00 PM79 °FPassing clouds.3 mph65%30.09 "HgN/A
Weather by CustomWeather, © 2015

See weather overviewHow to use our weather pages